Springfield, VT

2:31 AM EST on November 24, 2017 (GMT -0500)
Hartness State

Weather History for KVSF - October, 2011

Change the Weather History Date:

Monday, October 24, 2011

  Actual Average Record
Temperature  
Mean Temperature 45 °F 44 °F  
Max Temperature 58 °F 55 °F 71 °F (1998)
Min Temperature 31 °F 33 °F 21 °F (2002)
Degree Days  
Heating Degree Days 20 21  
Month to date heating degree days 272 406  
Since 1 July heating degree days 375 658  
Cooling Degree Days 0 0  
Month to date cooling degree days 0 0  
Year to date cooling degree days 589 344  
Moisture  
Dew Point 35 °F    
Average Humidity 81    
Maximum Humidity 100    
Minimum Humidity 61    
Precipitation  
Precipitation 0.01 in 0.12 in 1.16 in (2017)
Month to date precipitation 3.22 3.63  
Year to date precipitation 47.30 35.76  
Sea Level Pressure  
Sea Level Pressure 30.09 in    
Wind  
Wind Speed 1 mph (SE)    
Max Wind Speed 13 mph    
Max Gust Speed 20 mph    
Visibility 4 miles    
Events Fog    
T = Trace of Precipitation, MM = Missing Value Source: NWS Daily Summary

Daily Weather History Graph

Daily Weather History Graph

Search for Another Location

Airport or City:

Trip Planner

Search our weather history database for the weather conditions in past years. The results will help you decide how hot, cold, wet, or windy it might be!

Date:

Astronomy

Oct. 24, 2011 Rise Set
Actual Time 7:14 AM EDT 5:53 PM EDT
Civil Twilight 6:45 AM EDT 6:22 PM EDT
Nautical Twilight 6:12 AM EDT 6:55 PM EDT
Astronomical Twilight 5:39 AM EDT 7:28 PM EDT
Moon 4:26 AM EDT 4:18 PM EDT
Length of Visible Light 11h 36m
Length of Day
10h 38m
Waning Crescent, 7% of the Moon is Illuminated
Oct 24
Waning Crescent
Oct 26
New
Nov 2
First Quarter
Nov 10
Full
Nov 18
Last Quarter

Hourly Weather History & Observations

Time (EDT) Temp. Dew Point Humidity Pressure Visibility Wind Dir Wind Speed Gust Speed Precip Events Conditions
12:06 AM 35.6 °F 32.0 °F 87% 30.15 in 7.0 mi Calm Calm - N/A   Mostly Cloudy
12:47 AM 33.8 °F 32.0 °F 93% 30.15 in 2.5 mi Calm Calm - N/A   Scattered Clouds
1:03 AM 33.8 °F 32.0 °F 93% 30.15 in 0.2 mi Calm Calm - N/A Fog Fog
1:46 AM 33.8 °F 30.2 °F 87% 30.15 in 0.5 mi Calm Calm - N/A Fog Fog
1:54 AM 33.1 °F 30.9 °F 92% 30.16 in 0.5 mi Calm Calm - N/A Fog Fog
2:07 AM 32.0 °F 32.0 °F 100% 30.15 in 0.2 mi Calm Calm - N/A Fog Fog
2:54 AM 32.0 °F 30.9 °F 96% 30.15 in 0.2 mi Calm Calm - N/A Fog Fog
3:22 AM 33.8 °F 32.0 °F 93% 30.14 in 0.2 mi Calm Calm - N/A Fog Fog
3:30 AM 32.0 °F 30.2 °F 93% 30.14 in 1.0 mi Calm Calm - N/A   Mist
3:42 AM 32.0 °F 30.2 °F 93% 30.14 in 0.5 mi Calm Calm - N/A Fog Fog
3:54 AM 32.0 °F 30.0 °F 92% 30.15 in 0.5 mi Calm Calm - N/A Fog Fog
4:15 AM 32.0 °F 30.2 °F 93% 30.13 in 0.2 mi Calm Calm - N/A Fog Fog
4:28 AM 30.2 °F 30.2 °F 100% 30.13 in 0.5 mi Calm Calm - N/A Fog Light Freezing Fog
4:44 AM 30.2 °F 30.2 °F 100% 30.13 in 0.2 mi Calm Calm - N/A Fog Light Freezing Fog
4:54 AM 30.9 °F 30.0 °F 96% 30.14 in 0.2 mi Calm Calm - N/A Fog Light Freezing Fog
5:54 AM 32.0 °F 30.9 °F 96% 30.15 in 0.2 mi Calm Calm - N/A Fog Fog
6:10 AM 32.0 °F 30.2 °F 93% 30.13 in 0.2 mi Calm Calm - N/A Fog Fog
6:54 AM 32.0 °F 30.0 °F 92% 30.14 in 0.5 mi Calm Calm - N/A Fog Fog
7:34 AM 32.0 °F 30.2 °F 93% 30.13 in 0.2 mi Calm Calm - N/A Fog Fog
7:54 AM 32.0 °F 30.9 °F 96% 30.15 in 0.2 mi Calm Calm - N/A Fog Fog
8:20 AM 32.0 °F 30.2 °F 93% 30.13 in 1.0 mi Calm Calm - N/A   Overcast
8:35 AM 32.0 °F 30.2 °F 93% 30.13 in 0.2 mi Calm Calm - N/A Fog Fog
8:49 AM 33.8 °F 30.2 °F 87% 30.13 in 0.8 mi Calm Calm - N/A   Overcast
8:54 AM 33.1 °F 30.9 °F 92% 30.15 in 1.8 mi Calm Calm - N/A   Overcast
9:06 AM 33.8 °F 32.0 °F 93% 30.13 in 3.0 mi Calm Calm - N/A   Overcast
9:54 AM 36.0 °F 34.0 °F 93% 30.14 in 8.0 mi Calm Calm - N/A   Mostly Cloudy
10:54 AM 43.0 °F 37.9 °F 82% 30.12 in 10.0 mi Calm Calm - N/A   Mostly Cloudy
11:54 AM 48.0 °F 39.0 °F 71% 30.10 in 10.0 mi Calm Calm - N/A   Clear
12:54 PM 51.1 °F 39.9 °F 66% 30.06 in 10.0 mi Calm Calm - N/A   Clear
1:54 PM 55.9 °F 42.1 °F 60% 30.01 in 10.0 mi Variable 4.6 mph - N/A   Partly Cloudy
2:54 PM 55.0 °F 43.0 °F 64% 29.99 in 10.0 mi Variable 4.6 mph - N/A   Clear
3:54 PM 57.9 °F 44.1 °F 60% 29.97 in 10.0 mi South 8.1 mph - N/A   Clear
4:54 PM 55.9 °F 44.1 °F 64% 29.95 in 10.0 mi South 8.1 mph 16.1 mph N/A   Clear
5:54 PM 53.1 °F 44.1 °F 71% 29.95 in 10.0 mi Variable 3.5 mph - N/A   Partly Cloudy
6:54 PM 53.1 °F 44.1 °F 71% 29.95 in 10.0 mi Calm Calm - N/A   Scattered Clouds
8:54 PM 50.0 °F 46.9 °F 89% 29.95 in 9.0 mi Calm Calm - 0.01 in   Overcast
9:54 PM 50.0 °F 46.9 °F 89% 29.95 in 8.0 mi ENE 3.5 mph - 0.00 in   Overcast
10:54 PM 50.0 °F 46.0 °F 86% 29.94 in 9.0 mi Calm Calm - 0.00 in   Overcast